Stations météo

Publicité
Carcassonne, France (7635): Température de l'air & dewpoint: 09.11.2019 16:00:00 - 15.11.2019 16:00:00 (CET)Carcassonne, France (7635): Température de l'air 5cm: 09.11.2019 16:00:00 - 15.11.2019 16:00:00 (CET)Carcassonne, France (7635): Température de l'air -20cm & Température de l'air -100cm: 09.11.2019 16:00:00 - 15.11.2019 16:00:00 (CET)Carcassonne, France (7635): Vitesse du vent & gusts: 09.11.2019 16:00:00 - 15.11.2019 16:00:00 (CET)Carcassonne, France (7635): Direction du vent: 09.11.2019 16:00:00 - 15.11.2019 16:00:00 (CET)Carcassonne, France (7635): reduced air pressure: 09.11.2019 16:00:00 - 15.11.2019 16:00:00 (CET)Carcassonne, France (7635): visibility: 09.11.2019 16:00:00 - 15.11.2019 16:00:00 (CET)Carcassonne, France (7635): Ensoleillement: 09.11.2019 16:00:00 - 15.11.2019 16:00:00 (CET)Carcassonne, France (7635): Quantités de précipitations: 09.11.2019 16:00:00 - 15.11.2019 16:00:00 (CET)
Date & Time tt [°C] td [°C] tt 5cm [°C] tt -20cm [°C] tt -100cm [°C] ff [km/h] ff [knt] fx [km/h] fx [knt] dd ppp [hPa] vv [km] sd [min] rr [mm]
15.11.2019 16:00:00 9,1 3,9 8,6 9,6 14,7 18 10 32 18 E 1000,1 60 21 0,0
15.11.2019 15:00:00 9,2 3,6 9,4 9,4 14,7 23 12 38 20 E 999,5 56 27 0,0
15.11.2019 14:00:00 9,8 4,4 9,9 9,2 14,7 25 13 41 22 E 999,1 50 44 0,0
15.11.2019 13:00:00 9,0 4,0 9,0 9,0 14,7 26 14 41 22 E 999,5 60 24 0,0
15.11.2019 12:00:00 7,9 4,1 9,1 8,8 14,7 21 11 34 18 E 1000,0 56 31 0,0
15.11.2019 11:00:00 6,9 4,7 9,9 8,7 14,7 14 8 26 14 E 1000,5 60 60 0,0
15.11.2019 10:00:00 4,1 3,5 3,8 8,7 14,7 8 4 13 7 NE 1000,9 27 60 0,0
15.11.2019 09:00:00 1,3 1,3 -2,0 8,9 14,7 4 2 13 7 SSE 1001,7 26 41 0,0
15.11.2019 08:00:00 -0,2 -0,5 -2,8 9,0 14,7 6 3 12 6 E 1001,4 20 0 0,0
15.11.2019 07:00:00 0,5 0,2 -2,5 9,1 14,7 8 4 14 7 S 1000,9 20 0 0,0
15.11.2019 06:00:00 -0,2 -0,5 -2,3 9,2 14,8 3 2 8 4 SSE 1001,1 12 0 0,0
15.11.2019 05:00:00 0,6 0,2 -0,9 9,4 14,7 6 3 15 8 S 1001,0 16 0 0,0
15.11.2019 04:00:00 0,6 0,3 -2,2 9,5 14,8 7 4 14 8 S 1000,6 10 0 0,0
15.11.2019 03:00:00 0,4 0,0 -2,1 9,7 14,8 3 2 8 4 WSW 1000,4 5 0 0,0
15.11.2019 02:00:00 1,4 1,0 -0,8 9,8 14,8 5 3 16 8 S 1000,1 10 0 0,0
15.11.2019 01:00:00 1,7 1,3 -0,8 9,9 14,8 8 4 15 8 S 1000,1 7 0 0,0
15.11.2019 00:00:00 1,7 1,1 -1,1 10,1 14,8 5 3 12 7 S 999,5 4,8 0 0,0
14.11.2019 23:00:00 2,3 1,7 -0,6 10,2 14,8 4 2 10 5 SE 999,3 9 0 0,0
14.11.2019 22:00:00 3,0 2,4 -0,3 10,4 14,9 8 4 13 7 W 999,1 19 0 0,0
14.11.2019 21:00:00 2,9 2,2 -0,3 10,5 14,9 4 2 13 7 W 999,0 17 0 0,0
14.11.2019 20:00:00 3,8 2,5 0,7 10,6 14,9 8 5 12 6 SW 998,8 10 0 0,0
14.11.2019 19:00:00 4,7 4,0 2,5 10,6 14,9 5 3 10 5 SW 999,2 19 0 0,0
14.11.2019 18:00:00 5,2 4,0 3,7 10,6 14,9 7 4 13 7 WNW 999,0 55 4 0,0
14.11.2019 17:00:00 6,4 4,9 6,0 10,6 14,9 9 5 15 8 W 998,7 55 8 0,0
14.11.2019 16:00:00 6,3 4,5 6,0 10,6 14,9 8 4 18 10 W 998,7 59 0 0,0
14.11.2019 15:00:00 6,2 4,2 5,7 10,5 14,9 10 5 22 12 W 999,2 60 0 0,0
14.11.2019 14:00:00 6,1 4,4 5,8 10,4 14,9 13 7 23 12 W 1000,0 57 0 0,0
14.11.2019 13:00:00 6,1 4,3 5,9 10,4 14,9 15 8 22 12 WNW 1000,2 60 0 0,0
14.11.2019 12:00:00 5,9 4,1 6,0 10,3 14,9 12 6 20 11 WNW 1001,0 57 0 0,0
14.11.2019 11:00:00 5,6 3,9 5,4 10,3 15,0 15 8 31 17 W 1001,9 60 0 0,0
14.11.2019 10:00:00 5,3 4,1 5,1 10,3 15,0 18 10 39 21 W 1003,1 38 0 0,6
14.11.2019 09:00:00 5,9 5,2 - 10,3 15,0 18 10 39 21 W 1003,1 15 0 0,8
14.11.2019 08:00:00 6,0 6,0 - 10,3 15,0 21 11 - - W - 11 - -
14.11.2019 07:00:00 7,0 5,0 - 10,4 15,0 21 11 - - W - 16 - -
14.11.2019 06:00:00 6,0 4,0 - 10,5 15,0 5 3 - - S - 60 - -
14.11.2019 05:00:00 5,0 3,0 - 10,5 15,0 9 5 - - E - 60 - -
14.11.2019 04:00:00 5,0 3,0 - 10,6 15,0 11 6 - - E - 60 - -
14.11.2019 03:00:00 5,0 3,0 - 10,8 15,0 11 6 - - E - 60 - -
14.11.2019 02:00:00 5,0 3,0 - 10,9 15,0 16 9 - - E - 55 - -
14.11.2019 01:00:00 4,0 3,0 - 11,0 15,0 7 4 - - ESE - 55 - -
14.11.2019 00:00:00 4,5 3,5 2,4 11,1 15,1 4 2 16 8 ESE 1006,4 32 0 0,0
13.11.2019 23:00:00 4,5 3,6 0,5 11,3 15,1 6 3 11 6 S 1007,5 44 0 0,0
13.11.2019 22:00:00 5,2 4,0 1,5 11,4 15,1 6 3 9 5 S 1008,7 59 0 0,0
13.11.2019 21:00:00 7,1 4,7 4,9 11,5 15,1 5 3 12 7 SW 1009,1 60 0 0,0
13.11.2019 20:00:00 6,0 3,7 2,4 11,6 15,1 8 5 15 8 SW 1009,9 60 0 0,0
13.11.2019 19:00:00 7,5 3,5 4,4 11,7 15,1 6 4 18 10 W 1010,2 60 0 0,0
13.11.2019 18:00:00 8,2 2,8 6,8 11,8 15,1 10 6 33 18 W 1010,4 58 5 0,0
13.11.2019 17:00:00 9,7 3,0 8,8 11,8 15,1 14 8 41 22 W 1009,8 60 38 0,0
13.11.2019 16:00:00 10,8 4,0 10,4 11,8 15,1 26 14 53 28 WNW 1009,4 53 25 0,0
13.11.2019 15:00:00 11,1 5,6 10,5 11,6 15,1 24 13 41 22 WNW 1008,9 56 3 0,0
13.11.2019 14:00:00 10,4 5,8 9,0 11,6 15,1 27 15 44 24 WNW 1009,0 54 0 0,0
13.11.2019 13:00:00 10,4 6,7 9,7 11,5 15,1 23 13 39 21 NW 1008,9 56 0 0,0
13.11.2019 12:00:00 10,6 7,5 10,8 11,3 15,1 22 12 40 22 WNW 1008,9 54 0 0,0
13.11.2019 11:00:00 10,1 7,9 10,2 11,3 15,1 21 11 37 20 W 1008,8 49 22 0,0
13.11.2019 10:00:00 9,6 7,9 8,9 11,3 15,2 18 10 35 19 W 1008,4 50 12 0,0
13.11.2019 09:00:00 8,8 7,4 8,0 11,3 15,2 16 9 30 16 W 1007,9 59 0 0,0
13.11.2019 08:00:00 8,5 7,3 7,4 11,4 15,2 11 6 22 12 W 1007,1 60 0 0,0
13.11.2019 07:00:00 8,5 7,1 7,5 11,4 15,2 13 7 25 13 W 1006,8 60 0 0,0
13.11.2019 06:00:00 8,6 7,2 7,8 11,5 15,2 10 6 22 12 WSW 1006,4 60 0 0,0
13.11.2019 05:00:00 8,6 7,2 7,7 11,5 15,2 10 5 22 12 W 1006,0 60 0 0,0
13.11.2019 04:00:00 8,6 7,2 8,0 11,5 15,2 11 6 22 12 WSW 1006,0 60 0 0,0
13.11.2019 03:00:00 8,7 7,3 8,0 11,5 15,2 12 7 23 12 W 1005,9 60 0 0,0
13.11.2019 02:00:00 8,8 7,4 8,2 11,6 15,2 13 7 28 15 W 1006,0 60 0 0,0
13.11.2019 01:00:00 8,9 7,7 8,1 11,7 15,3 16 8 30 16 W 1006,5 60 0 0,0
13.11.2019 00:00:00 9,1 8,0 8,4 11,7 15,3 17 9 29 16 W 1006,9 60 0 0,2
12.11.2019 23:00:00 9,0 7,9 8,6 11,7 15,3 11 6 20 11 W 1007,4 58 0 0,0
12.11.2019 22:00:00 9,0 8,1 8,2 11,7 15,3 13 7 21 12 W 1007,7 60 0 0,0
12.11.2019 21:00:00 9,3 8,4 8,5 11,8 15,3 14 7 23 12 W 1007,9 60 0 0,2
12.11.2019 20:00:00 9,0 8,2 8,5 11,8 15,3 14 8 46 25 W 1008,2 33 0 1,0
12.11.2019 19:00:00 10,2 8,1 9,3 11,8 15,3 14 8 34 18 W 1008,3 18 0 0,0
12.11.2019 18:00:00 11,0 7,3 10,4 11,8 15,3 18 10 39 21 WNW 1008,3 60 0 0,0
12.11.2019 17:00:00 11,5 7,4 10,0 11,7 15,3 22 12 42 23 W 1008,2 60 21 0,2
12.11.2019 16:00:00 11,3 8,5 9,9 11,5 15,3 25 13 46 25 W 1008,6 7 40 0,4
12.11.2019 15:00:00 11,2 7,7 10,3 11,4 15,3 24 13 42 23 W 1009,3 57 20 0,0
12.11.2019 14:00:00 10,8 8,9 9,4 11,2 15,4 26 14 51 28 WNW 1009,8 20 9 0,6
12.11.2019 13:00:00 12,2 6,2 11,1 11,0 15,4 35 19 55 30 W 1010,6 54 25 0,0
12.11.2019 12:00:00 10,9 6,8 10,6 10,9 15,4 25 14 52 28 W 1011,6 52 2 0,0
12.11.2019 11:00:00 10,5 6,6 9,5 10,9 15,4 26 14 46 25 W 1012,5 59 10 0,0
12.11.2019 10:00:00 8,7 6,8 6,7 10,9 15,4 16 9 33 18 W 1012,7 60 11 0,2
12.11.2019 09:00:00 7,2 5,8 5,9 10,9 15,4 19 10 32 18 W 1013,1 52 1 0,0
12.11.2019 08:00:00 6,6 5,5 5,9 11,0 15,4 21 11 36 19 W 1012,9 54 0 0,0
12.11.2019 07:00:00 7,0 5,9 5,7 11,1 15,4 23 13 39 21 W 1013,2 47 0 0,6
12.11.2019 06:00:00 6,6 5,4 5,6 11,2 15,5 15 8 23 12 W 1013,6 41 0 0,0
12.11.2019 05:00:00 6,7 5,3 5,8 11,3 15,5 15 8 30 16 W 1014,2 37 0 0,0
12.11.2019 04:00:00 7,0 5,6 6,3 11,4 15,5 18 10 31 17 W 1014,6 20 0 0,0
12.11.2019 03:00:00 7,3 5,8 6,7 11,4 15,5 14 8 37 20 WNW 1015,0 11 0 0,0
12.11.2019 02:00:00 7,6 5,9 6,6 11,5 15,5 19 10 33 18 W 1015,3 20 0 0,0
12.11.2019 01:00:00 7,4 5,7 6,6 11,6 15,5 18 10 34 18 W 1015,9 20 0 0,0
12.11.2019 00:00:00 8,4 5,7 7,6 11,8 15,5 17 9 37 20 W 1015,9 36 0 0,0
11.11.2019 23:00:00 8,2 4,6 7,2 11,9 15,5 22 12 42 23 W 1015,8 43 0 0,0
11.11.2019 22:00:00 8,1 3,7 7,3 12,0 15,5 28 15 55 30 W 1015,7 53 0 0,0
11.11.2019 21:00:00 8,6 4,0 7,8 12,1 15,6 35 19 72 39 W 1014,7 60 0 0,0
11.11.2019 20:00:00 9,0 6,8 8,2 12,1 15,6 39 21 69 37 W 1013,8 20 0 1,2
11.11.2019 19:00:00 9,4 8,6 8,7 12,1 15,6 15 8 42 23 W 1012,5 6 0 0,8
11.11.2019 18:00:00 10,7 6,3 9,9 12,0 15,6 11 6 23 13 W 1011,9 60 0 0,0
11.11.2019 17:00:00 11,2 5,7 10,8 11,9 15,6 10 6 19 10 WNW 1011,3 60 0 0,0
11.11.2019 16:00:00 12,1 5,5 12,1 11,7 15,6 13 7 26 14 WNW 1011,1 60 25 0,0
11.11.2019 15:00:00 12,5 4,7 13,5 11,4 15,6 18 10 32 17 WNW 1011,2 57 45 0,0
11.11.2019 14:00:00 12,8 5,5 15,5 11,1 15,6 19 11 32 18 WNW 1011,5 60 60 0,0
11.11.2019 13:00:00 11,6 5,0 14,2 10,8 15,6 19 11 29 15 W 1012,4 60 60 0,0
11.11.2019 12:00:00 10,0 4,4 13,2 10,6 15,6 13 7 27 14 W 1013,8 60 60 0,0
11.11.2019 11:00:00 8,6 3,6 6,5 10,5 15,6 12 7 23 12 WSW 1015,0 59 30 0,0
11.11.2019 10:00:00 6,0 3,5 5,6 10,6 15,7 13 7 27 14 WSW 1015,9 60 0 0,0
11.11.2019 09:00:00 5,4 3,7 4,6 10,6 15,7 14 7 29 15 W 1016,0 60 0 0,0
11.11.2019 08:00:00 4,9 3,6 4,4 10,7 15,7 12 7 28 15 W 1015,5 60 0 0,0
11.11.2019 07:00:00 4,9 3,6 4,3 10,8 15,7 14 7 25 14 WSW 1016,2 60 0 0,0
11.11.2019 06:00:00 4,7 3,2 4,0 10,9 15,7 16 9 30 16 W 1016,7 60 0 0,0
11.11.2019 05:00:00 4,7 3,4 3,8 11,1 15,7 13 7 26 14 W 1016,8 60 0 0,0
11.11.2019 04:00:00 4,4 3,2 3,8 11,2 15,7 13 7 26 14 W 1017,1 60 0 0,0
11.11.2019 03:00:00 4,8 3,6 4,1 11,3 15,7 14 8 30 16 WSW 1017,1 60 0 0,0
11.11.2019 02:00:00 4,7 3,8 3,9 11,5 15,7 16 9 31 17 W 1017,3 60 0 0,0
11.11.2019 01:00:00 4,9 4,0 4,1 11,6 15,8 12 7 23 12 W 1017,4 60 0 0,0
11.11.2019 00:00:00 5,8 4,6 4,9 11,7 15,8 14 7 32 17 W 1016,6 60 0 0,0
10.11.2019 23:00:00 6,5 5,3 5,6 11,9 15,8 15 8 35 19 W 1016,8 60 0 0,0
10.11.2019 22:00:00 6,7 5,3 5,3 12,0 15,8 21 11 35 19 W 1016,7 60 0 0,0
10.11.2019 21:00:00 6,3 4,5 5,2 12,1 15,8 19 10 39 21 W 1016,5 60 0 0,0
10.11.2019 20:00:00 7,2 5,5 6,5 12,2 15,8 14 7 29 15 W 1016,4 60 0 0,0
10.11.2019 19:00:00 7,4 5,0 6,2 12,3 15,9 22 12 36 19 W 1015,5 60 0 0,0
10.11.2019 18:00:00 7,9 5,0 7,1 12,4 15,9 18 10 31 17 W 1014,1 60 0 0,0
10.11.2019 17:00:00 8,7 4,9 8,2 12,4 15,9 18 10 37 20 W 1013,2 60 48 0,0
10.11.2019 16:00:00 10,1 4,7 9,4 12,2 15,9 23 12 48 26 W 1012,3 60 38 0,0
10.11.2019 15:00:00 11,4 5,0 12,0 12,1 15,9 26 14 42 23 WNW 1011,5 55 58 0,0
10.11.2019 14:00:00 9,6 5,8 8,4 11,9 15,9 20 11 37 20 NW 1012,1 60 14 0,0
10.11.2019 13:00:00 11,0 5,7 11,5 11,7 15,9 21 11 37 20 W 1012,3 46 28 0,0
10.11.2019 12:00:00 10,2 5,0 11,5 11,6 15,9 26 14 41 22 WNW 1012,8 47 55 0,0
10.11.2019 11:00:00 8,9 5,3 8,6 11,5 16,0 21 11 36 20 WNW 1013,2 48 14 0,0
10.11.2019 10:00:00 7,8 5,1 6,8 11,6 16,0 18 10 28 15 W 1013,0 59 5 0,0
10.11.2019 09:00:00 6,7 4,9 5,3 11,7 15,9 12 7 24 13 WNW 1013,0 54 0 0,0
10.11.2019 08:00:00 6,3 4,3 5,4 11,8 16,0 17 9 29 15 W 1012,4 60 0 0,0
10.11.2019 07:00:00 6,6 4,8 5,7 11,9 16,0 16 8 34 19 W 1012,3 60 0 0,0
10.11.2019 06:00:00 7,1 4,9 6,1 12,0 16,0 19 10 45 24 W 1011,9 60 0 0,0
10.11.2019 05:00:00 7,6 5,1 6,6 12,1 16,0 22 12 44 24 W 1011,8 60 0 0,0
10.11.2019 04:00:00 7,5 5,5 6,3 12,2 16,0 16 9 31 17 W 1011,6 60 0 0,0
10.11.2019 03:00:00 7,1 5,7 6,3 12,3 16,0 13 7 53 29 W 1011,7 60 0 0,8
10.11.2019 02:00:00 8,2 6,7 7,3 12,4 16,1 23 13 45 24 WNW 1011,6 18 0 0,6
10.11.2019 01:00:00 8,8 7,4 7,9 12,5 16,1 19 11 48 26 W 1011,6 16 0 3,4
10.11.2019 00:00:00 9,9 8,5 8,8 12,5 16,1 18 10 44 24 W 1010,6 17 0 0,0
09.11.2019 23:00:00 9,1 8,5 8,2 12,6 16,1 11 6 32 18 W 1010,4 6 0 1,4
09.11.2019 22:00:00 8,5 7,7 8,2 12,6 16,1 4 2 9 5 N 1010,4 12 0 0,4
09.11.2019 21:00:00 8,8 7,6 8,0 12,7 16,1 2 1 5 3 N 1011,4 4,2 0 1,8
09.11.2019 20:00:00 9,0 7,1 7,9 12,8 16,2 3 1 9 5 NW 1011,7 37 0 0,0
09.11.2019 19:00:00 8,8 6,6 6,4 12,8 16,2 5 3 9 5 S 1011,5 57 0 0,0
09.11.2019 18:00:00 9,2 5,9 7,0 12,8 16,2 3 2 6 4 SSE 1011,2 60 1 0,0
09.11.2019 17:00:00 11,5 6,6 10,7 12,7 16,2 2 1 18 10 NW 1011,7 60 24 0,0
09.11.2019 16:00:00 11,7 5,6 11,8 12,5 16,2 12 6 26 14 WNW 1012,3 60 20 0,0

tt = Température de l'air
td = dewpoint
tt 5cm = Température de l'air 5cm
tt -20cm = Température de l'air -20cm
tt -100cm = Température de l'air -100cm
ff = Vitesse du vent
fx = gusts
dd = Direction du vent
ppp = reduced air pressure
vv = visibility
sd = Ensoleillement
rr = Quantités de précipitations

stations d'obs. à proximité